Mojave, CA

9:53 PM PST on November 17, 2019 (GMT -0800)
Mojave

Weather History for KMHV - June, 2019

Change the Weather History Date:

Saturday, June 8, 2019

  Actual Average Record
Temperature  
Mean Temperature 73 °F -  
Max Temperature 86 °F 86 °F 104 °F (2013)
Min Temperature 60 °F 58 °F 46 °F (1988)
Cooling Degree Days 8    
Growing Degree Days 23 (Base 50)    
Moisture  
Dew Point 28 °F    
Average Humidity 20    
Maximum Humidity 32    
Minimum Humidity 10    
Precipitation  
Precipitation 0.00 in - - ()
Sea Level Pressure  
Sea Level Pressure 29.97 in    
Wind  
Wind Speed 17 mph (NNE)    
Max Wind Speed 32 mph    
Max Gust Speed 44 mph    
Visibility 10 miles    
Events      
Averages and records for this station are not official NWS values.
T = Trace of Precipitation, MM = Missing Value Source: NWS Daily Summary

Daily Weather History Graph

Daily Weather History Graph

Search for Another Location

Airport or City:

Astronomy

Jun. 08, 2019 Rise Set
Actual Time 5:38 AM PDT 8:05 PM PDT
Civil Twilight 5:08 AM PDT 8:34 PM PDT
Nautical Twilight 4:32 AM PDT 9:11 PM PDT
Astronomical Twilight 3:52 AM PDT 9:51 PM PDT
Moon 11:06 AM PDT (6/8) 12:14 AM PDT (6/8)
Length of Visible Light 15h 26m
Length of Day
14h 27m
Waxing Crescent, 34% of the Moon is Illuminated
Jun 8
Waxing Crescent
Jun 9
First Quarter
Jun 17
Full
Jun 25
Last Quarter
Jul 2
New

Hourly Weather History & Observations

Time (PDT) Temp. Dew Point Humidity Pressure Visibility Wind Dir Wind Speed Gust Speed Precip Events Conditions
12:00 AM 64.4 °F 32.0 °F 30% 29.87 in 10.0 mi NW 28.8 mph 42.6 mph N/A   Clear
12:20 AM 62.6 °F 32.0 °F 32% 29.87 in 10.0 mi WNW 26.5 mph - N/A   Clear
12:40 AM 62.6 °F 30.2 °F 30% 29.87 in 10.0 mi NW 25.3 mph 33.4 mph N/A   Clear
1:00 AM 64.4 °F 32.0 °F 30% 29.87 in 10.0 mi NW 27.6 mph 35.7 mph N/A   Clear
1:20 AM 62.6 °F 32.0 °F 32% 29.88 in 10.0 mi NW 23.0 mph 34.5 mph N/A   Clear
1:40 AM 62.6 °F 32.0 °F 32% 29.87 in 10.0 mi WNW 28.8 mph 40.3 mph N/A   Clear
2:00 AM 62.6 °F 32.0 °F 32% 29.86 in 10.0 mi NW 32.2 mph 43.7 mph N/A   Clear
2:20 AM 62.6 °F 32.0 °F 32% 29.86 in 10.0 mi NW 28.8 mph 41.4 mph N/A   Clear
2:40 AM 62.6 °F 32.0 °F 32% 29.86 in 10.0 mi NW 28.8 mph 35.7 mph N/A   Clear
3:00 AM 62.6 °F 32.0 °F 32% 29.87 in 10.0 mi NW 20.7 mph 33.4 mph N/A   Clear
3:20 AM 62.6 °F 30.2 °F 30% 29.88 in 10.0 mi NNW 18.4 mph 26.5 mph N/A   Clear
3:40 AM 62.6 °F 30.2 °F 30% 29.89 in 10.0 mi NNW 13.8 mph 20.7 mph N/A   Clear
4:00 AM 60.8 °F 30.2 °F 31% 29.89 in 10.0 mi WNW 21.9 mph - N/A   Clear
4:20 AM 62.6 °F 30.2 °F 30% 29.90 in 10.0 mi NW 16.1 mph 23.0 mph N/A   Clear
4:40 AM 60.8 °F 28.4 °F 29% 29.90 in 10.0 mi WNW 16.1 mph - N/A   Clear
5:00 AM 60.8 °F 28.4 °F 29% 29.91 in 10.0 mi NW 11.5 mph 23.0 mph N/A   Clear
5:20 AM 60.8 °F 30.2 °F 31% 29.92 in 10.0 mi NW 15.0 mph 21.9 mph N/A   Clear
5:40 AM 60.8 °F 30.2 °F 31% 29.93 in 10.0 mi NW 13.8 mph 20.7 mph N/A   Clear
6:00 AM 60.8 °F 30.2 °F 31% 29.94 in 10.0 mi NW 12.7 mph - N/A   Clear
6:20 AM 62.6 °F 32.0 °F 32% 29.95 in 10.0 mi North 4.6 mph - N/A   Clear
6:40 AM 62.6 °F 30.2 °F 30% 29.96 in 10.0 mi North 4.6 mph - N/A   Clear
7:00 AM 62.6 °F 32.0 °F 32% 29.97 in 10.0 mi NE 3.5 mph - N/A   Clear
7:20 AM 64.4 °F 32.0 °F 30% 29.97 in 10.0 mi Calm Calm - N/A   Clear
7:40 AM 66.2 °F 30.2 °F 26% 29.98 in 10.0 mi SE 4.6 mph - N/A   Clear
8:00 AM 66.2 °F 30.2 °F 26% 29.99 in 10.0 mi ESE 3.5 mph - N/A   Clear
8:20 AM 68.0 °F 32.0 °F 26% 30.00 in 10.0 mi Calm Calm - N/A   Clear
8:40 AM 68.0 °F 32.0 °F 26% 30.00 in 10.0 mi ENE 3.5 mph - N/A   Clear
9:00 AM 71.6 °F 32.0 °F 23% 30.00 in 10.0 mi NE 9.2 mph - N/A   Clear
9:20 AM 73.4 °F 30.2 °F 20% 30.00 in 10.0 mi NE 13.8 mph 24.2 mph N/A   Clear
9:40 AM 73.4 °F 32.0 °F 22% 30.00 in 10.0 mi NE 10.4 mph 19.6 mph N/A   Clear
10:00 AM 75.2 °F 30.2 °F 19% 30.00 in 10.0 mi NNE 18.4 mph - N/A   Clear
10:20 AM 77.0 °F 28.4 °F 17% 30.00 in 10.0 mi NE 16.1 mph 23.0 mph N/A   Clear
10:40 AM 77.0 °F 26.6 °F 16% 30.00 in 10.0 mi NE 17.3 mph 25.3 mph N/A   Clear
11:00 AM 77.0 °F 26.6 °F 16% 30.01 in 10.0 mi ENE 15.0 mph 27.6 mph N/A   Clear
11:20 AM 78.8 °F 28.4 °F 16% 30.01 in 10.0 mi ENE 16.1 mph 27.6 mph N/A   Clear
11:40 AM 78.8 °F 28.4 °F 16% 30.01 in 10.0 mi ENE 18.4 mph 25.3 mph N/A   Clear
12:00 PM 78.8 °F 28.4 °F 16% 30.01 in 10.0 mi ENE 15.0 mph 21.9 mph N/A   Clear
12:20 PM 78.8 °F 26.6 °F 15% 30.01 in 10.0 mi NNE 10.4 mph 25.3 mph N/A   Clear
12:40 PM 80.6 °F 28.4 °F 15% 30.00 in 10.0 mi NE 16.1 mph 23.0 mph N/A   Clear
1:00 PM 80.6 °F 26.6 °F 14% 30.00 in 10.0 mi NE 17.3 mph 23.0 mph N/A   Clear
1:20 PM 80.6 °F 26.6 °F 14% 30.00 in 10.0 mi NE 10.4 mph 20.7 mph N/A   Clear
1:40 PM 82.4 °F 26.6 °F 13% 29.99 in 10.0 mi East 17.3 mph - N/A   Clear
2:00 PM 82.4 °F 24.8 °F 12% 30.00 in 10.0 mi Variable 6.9 mph 19.6 mph N/A   Clear
2:20 PM 82.4 °F 24.8 °F 12% 29.99 in 10.0 mi ENE 10.4 mph 17.3 mph N/A   Clear
2:40 PM 84.2 °F 24.8 °F 11% 29.99 in 10.0 mi ENE 16.1 mph 21.9 mph N/A   Clear
3:00 PM 84.2 °F 24.8 °F 11% 29.99 in 10.0 mi East 12.7 mph 23.0 mph N/A   Clear
3:20 PM 84.2 °F 24.8 °F 11% 29.98 in 10.0 mi East 13.8 mph - N/A   Clear
3:40 PM 86.0 °F 23.0 °F 10% 29.98 in 10.0 mi ENE 11.5 mph 18.4 mph N/A   Clear
4:00 PM 84.2 °F 24.8 °F 11% 29.97 in 10.0 mi NE 12.7 mph 18.4 mph N/A   Clear
4:20 PM 86.0 °F 23.0 °F 10% 29.97 in 10.0 mi ESE 13.8 mph - N/A   Clear
4:40 PM 86.0 °F 23.0 °F 10% 29.97 in 10.0 mi NE 9.2 mph - N/A   Clear
5:00 PM 86.0 °F 23.0 °F 10% 29.97 in 10.0 mi East 13.8 mph - N/A   Clear
5:20 PM 86.0 °F 23.0 °F 10% 29.97 in 10.0 mi ENE 12.7 mph - N/A   Clear
5:40 PM 86.0 °F 23.0 °F 10% 29.97 in 10.0 mi ENE 11.5 mph 18.4 mph N/A   Clear
6:00 PM 86.0 °F 23.0 °F 10% 29.96 in 10.0 mi NNE 8.1 mph - N/A   Clear
6:20 PM 86.0 °F 23.0 °F 10% 29.97 in 10.0 mi ENE 12.7 mph - N/A   Clear
6:40 PM 86.0 °F 23.0 °F 10% 29.97 in 10.0 mi ENE 11.5 mph - N/A   Clear
7:00 PM 84.2 °F 23.0 °F 11% 29.98 in 10.0 mi NE 9.2 mph - N/A   Clear
7:20 PM 84.2 °F 24.8 °F 11% 29.98 in 10.0 mi NNE 16.1 mph - N/A   Clear
7:40 PM 82.4 °F 24.8 °F 12% 29.99 in 10.0 mi NNE 15.0 mph - N/A   Clear
8:00 PM 80.6 °F 24.8 °F 13% 29.99 in 10.0 mi NNE 10.4 mph - N/A   Clear
8:20 PM 78.8 °F 24.8 °F 14% 30.00 in 10.0 mi NNE 10.4 mph - N/A   Clear
8:40 PM 75.2 °F 24.8 °F 15% 30.00 in 10.0 mi North 9.2 mph - N/A   Clear
9:00 PM 75.2 °F 24.8 °F 15% 30.01 in 10.0 mi North 9.2 mph - N/A   Clear
9:20 PM 75.2 °F 24.8 °F 15% 30.02 in 10.0 mi North 9.2 mph - N/A   Partly Cloudy
9:40 PM 73.4 °F 26.6 °F 18% 30.02 in 10.0 mi North 9.2 mph - N/A   Clear
10:00 PM 73.4 °F 24.8 °F 16% 30.03 in 10.0 mi North 8.1 mph - N/A   Clear
10:20 PM 69.8 °F 26.6 °F 20% 30.04 in 10.0 mi North 6.9 mph - N/A   Clear
10:40 PM 69.8 °F 26.6 °F 20% 30.04 in 10.0 mi North 9.2 mph - N/A   Clear
11:00 PM 71.6 °F 26.6 °F 19% 30.04 in 10.0 mi North 9.2 mph - N/A   Clear
11:20 PM 69.8 °F 26.6 °F 20% 30.05 in 10.0 mi North 9.2 mph - N/A   Clear
11:40 PM 69.8 °F 26.6 °F 20% 30.05 in 10.0 mi North 9.2 mph - N/A   Clear